EW3804 Weather Reports


Display with metric or nautical units.
time (UTC)temp
F
wind
direction
speed
MPH
gust
MPH
rain 1hr
in
rain 24hr
in
rain mn
in
humidity
%
barometer
mb
20260901050023 83 146 2.0 4.0 0.00 0.00 0.00 55 1007.0
20260901044531 83 150 3.0 5.0 0.00 0.00 0.00 54 1006.9
20260901043021 83 136 3.0 7.0 0.00 0.00 0.00 52 1006.9
20260901041527 84 127 1.0 3.0 0.00 0.00 0.00 50 1006.8
20260901040024 84 121 1.0 3.0 0.00 0.00 0.00 49 1006.6
20260901034534 84 120 0.0 0.0 0.00 0.00 0.00 49 1006.5
20260901033025 85 120 0.0 1.0 0.00 0.00 0.00 48 1006.5
20260901031530 85 120 0.0 0.0 0.00 0.00 0.00 48 1006.4
20260901030022 86 120 0.0 0.0 0.00 0.00 0.00 47 1006.2
20260901024518 87 121 0.0 2.0 0.00 0.00 0.00 47 1006.1
20260901023017 87 120 0.0 0.0 0.00 0.00 0.00 46 1006.0
20260901021518 88 121 0.0 1.0 0.00 0.00 0.00 45 1005.8
20260901020017 89 121 0.0 0.0 0.00 0.00 0.00 44 1005.7
20260901014515 90 120 0.0 2.0 0.00 0.00 0.00 42 1005.5
20260901013015 92 120 0.0 2.0 0.00 0.00 0.00 40 1005.4
20260901011517 93 121 1.0 4.0 0.00 0.00 0.00 38 1005.3
20260901010026 94 123 1.0 4.0 0.00 0.00 0.00 38 1005.2
20260901004518 95 116 3.0 8.0 0.00 0.00 0.00 37 1005.3
20260901003016 96 114 5.0 13.0 0.00 0.00 0.00 36 1005.2
20260901001515 97 111 5.0 9.0 0.00 0.00 0.00 35 1005.3
20260901000011 97 143 5.0 11.0 0.00 0.00 0.00 34 1005.2
20260831234511 97 137 5.0 10.0 0.00 0.00 0.00 35 1005.2
20260831233010 97 129 5.0 11.0 0.00 0.00 0.00 35 1005.2
20260831231511 98 132 7.0 14.0 0.00 0.00 0.00 34 1005.2
20260831230007 99 134 1.0 12.0 0.00 0.00 0.00 32 1005.2
20260831224507 99 84 7.0 14.0 0.00 0.00 0.00 30 1005.3
20260831223006 99 82 5.0 12.0 0.00 0.00 0.00 30 1005.4
20260831221505 100 126 4.0 9.0 0.00 0.00 0.00 31 1005.5
20260831220004 99 66 5.0 12.0 0.00 0.00 0.00 31 1005.5
20260831214501 99 153 4.0 11.0 0.00 0.00 0.00 29 1005.7
20260831213104 99 138 4.0 11.0 0.00 0.00 0.00 30 1005.8
20260831211601 99 82 7.0 12.0 0.00 0.00 0.00 32 1005.9
20260831210057 99 101 4.0 15.0 0.00 0.00 0.00 32 1006.2
20260831204558 99 146 3.0 11.0 0.00 0.00 0.00 34 1006.5
20260831203059 99 67 5.0 10.0 0.00 0.00 0.00 35 1006.7
20260831201558 97 103 3.0 12.0 0.00 0.00 0.00 36 1007.0
20260831200049 98 116 8.0 14.0 0.00 0.00 0.00 36 1007.2
20260831194547 98 129 3.0 15.0 0.00 0.00 0.00 37 1007.3
20260831193112 97 132 5.0 14.0 0.00 0.00 0.00 39 1007.4
20260831191542 97 120 7.0 15.0 0.00 0.00 0.00 39 1007.6
20260831190046 96 143 6.0 12.0 0.00 0.00 0.00 40 1007.8
20260831184540 97 98 2.0 12.0 0.00 0.00 0.00 39 1007.9
20260831183041 96 133 8.0 16.0 0.00 0.00 0.00 41 1008.1
20260831181549 95 102 7.0 15.0 0.00 0.00 0.00 41 1008.3
20260831180038 95 146 8.0 15.0 0.00 0.00 0.00 42 1008.5
20260831174535 94 147 5.0 15.0 0.00 0.00 0.00 44 1008.8
20260831173033 95 111 6.0 11.0 0.00 0.00 0.00 44 1009.0
20260831171529 94 147 6.0 13.0 0.00 0.00 0.00 47 1009.3
20260831170028 93 127 6.0 10.0 0.00 0.00 0.00 48 1009.3
20260831164523 92 169 4.0 9.0 0.00 0.00 0.00 51 1009.3
20260831163021 91 156 6.0 11.0 0.00 0.00 0.00 51 1009.4
20260831161534 90 105 5.0 13.0 0.00 0.00 0.00 52 1009.4
20260831160019 90 256 5.0 11.0 0.00 0.00 0.00 55 1009.4
20260831154513 89 272 2.0 8.0 0.00 0.00 0.00 60 1009.3
20260831153010 88 248 1.0 8.0 0.00 0.00 0.00 65 1009.2
20260831151506 87 259 4.0 10.0 0.00 0.00 0.00 67 1009.1
20260831150002 85 261 3.0 9.0 0.00 0.00 0.00 72 1009.1
20260831144603 85 265 7.0 11.0 0.00 0.00 0.00 73 1009.2
20260831143057 84 192 5.0 10.0 0.00 0.00 0.00 75 1009.0
20260831141555 83 216 5.0 9.0 0.00 0.00 0.00 78 1009.0
20260831140055 82 248 4.0 9.0 0.00 0.00 0.00 80 1008.9
20260831134559 81 193 3.0 8.0 0.00 0.00 0.00 83 1008.9
20260831133051 80 140 3.0 7.0 0.00 0.00 0.00 84 1008.7
20260831131558 78 158 0.0 6.0 0.00 0.00 0.00 87 1008.6
20260831130048 78 145 0.0 4.0 0.00 0.00 0.00 88 1008.4
20260831124544 0 0.0 0.0 0.00 0.00 0.00 1008.3
20260831123043 0 0.0 0.0 0.00 0.00 0.00 1008.2
20260831121535 0 0.0 0.0 0.00 0.00 0.00 1008.1
20260831120030 0 0.0 0.0 0.00 0.00 0.00 1007.9
20260831114526 0 0.0 0.0 0.00 0.00 0.00 1007.7
20260831113022 0 0.0 0.0 0.00 0.00 0.00 1007.6
20260831111516 0 0.0 0.0 0.00 0.00 0.00 1007.5
20260831110014 0 0.0 0.0 0.00 0.00 0.00 1007.3
20260831104518 0 0.0 0.0 0.00 0.00 0.00 1007.4
20260831103008 0 0.0 0.0 0.00 0.00 0.00 1007.4
20260831101559 0 0.0 0.0 0.00 0.00 0.00 1007.3
20260831100107 0 0.0 0.0 0.00 0.00 0.00 1007.4
20260831094550 77 151 2.0 5.0 0.00 0.00 0.00 81 1007.2
20260831093055 78 169 2.0 6.0 0.00 0.00 0.00 82 1007.2
20260831091546 78 170 2.0 6.0 0.00 0.00 0.00 80 1007.2
20260831090047 79 167 3.0 6.0 0.00 0.00 0.00 78 1007.2
20260831084539 79 152 3.0 5.0 0.00 0.00 0.00 76 1007.1
20260831083050 80 115 2.0 6.0 0.00 0.00 0.00 75 1007.1
20260831081535 80 162 2.0 6.0 0.00 0.00 0.00 74 1007.0
20260831080054 81 142 3.0 6.0 0.00 0.00 0.00 73 1007.0
20260831074531 81 161 3.0 7.0 0.00 0.00 0.00 72 1007.1
20260831073027 82 148 4.0 9.0 0.00 0.00 0.00 71 1007.3
20260831071540 83 147 2.0 6.0 0.00 0.00 0.00 70 1007.3
20260831070024 83 150 4.0 9.0 0.00 0.00 0.00 69 1007.3
20260831064521 83 174 5.0 10.0 0.00 0.00 0.00 68 1007.2
20260831063018 83 167 4.0 6.0 0.00 0.00 0.00 68 1007.1
20260831061517 83 179 2.0 6.0 0.00 0.00 0.00 67 1007.1
20260831060015 83 183 3.0 7.0 0.00 0.00 0.00 65 1007.1
20260831054514 83 176 4.0 8.0 0.00 0.00 0.00 63 1007.2
20260831053012 84 120 2.0 7.0 0.00 0.00 0.00 62 1007.2
20260831051516 84 141 3.0 6.0 0.00 0.00 0.00 61 1007.0